7 * 24
多渠道服务支持
STARLINK-37156(NORAD编号68263)是美国太空探索技术公司(SpaceX)部署的星链低轨互联网卫星,属于Starlink星座组网卫星,承担全球高速低延迟宽带互联网服务任务。该卫星运行在近地轨道,通过星链大规模组网实现全球覆盖,满足偏远地区网络接入、应急通信等场景需求。作为SpaceX星链计划的组成部分,它和其他星链卫星共同推进全球卫星互联网服务的普及,目前处于在轨运行状态,延续星链星座的通信服务能力。
美国
(US)
| 数据来源 | 国际轨道数据 |
| 星历时间: | 2026-06-10T12:00:02+0800 8小时前 查看轨道信息 |
| 半长轴: | 6840.976km |
| 偏心率: | 0.0001475 |
| 轨道倾角: | 53.158° |
| 近地点辐角 | 87.534° |
| 升交点赤经 | 249.850° |
| 平近点角 | 65.673° |
| 近地点: | 461.829km |
| 远地点: | 463.849km |
| 周期: | 93.851分钟 |
| 每日圈数: | 15.343544 |